Simultaneous Nadir Overpasses (SNOs) Predictions

Prediction of SNOs between METOP-A and NOAA-19 Satellite Orbit:

Table of predicted SNOs for the next 14.0 days since TLE Epoch: 8/18/2012
Index Date (METOP-A) Time (METOP-A) METOP-A Lat,Lon Date (NOAA-19) Time (NOAA-19) NOAA-19 Lat,Lon Distance(km) Time Diff (sec)
1 08/23/2012 13:54:20 73.43, -35.26 08/23/2012 13:53:08 73.43, -36.44 37.47 72
2 08/23/2012 14:45:07 -73.15, 131.47 08/23/2012 14:43:59 -73.15, 131.46 0.15 68
3 08/23/2012 15:35:48 73.10, -61.31 08/23/2012 15:35:07 73.13, -61.27 2.98 41
4 08/23/2012 16:26:30 -73.08, 105.97 08/23/2012 16:26:03 -73.10, 106.06 3.43 27
5 08/23/2012 17:17:10 73.08, -86.69 08/23/2012 17:17:11 73.07, -86.67 1.45 1
6 08/23/2012 18:07:52 -73.06, 80.59 08/23/2012 18:08:07 -73.04, 80.66 3.21 15
7 08/23/2012 18:58:32 73.06,-112.08 08/23/2012 18:59:16 73.07,-112.17 3.18 44
8 08/23/2012 19:49:14 -73.04, 55.20 08/23/2012 19:50:12 -73.04, 55.15 1.62 58
9 08/23/2012 20:40:03 72.58,-138.42 08/23/2012 20:41:12 72.61,-136.72 56.53 69




NCC Satellite Simultaneous Nadir Overpasses (SNOs) Prediction Service
